Showing default

GEESAT 3-01, 61011

Orbit data source: Space-Track

GEESAT 3-01, 61011 is a payload satellite owned by GeeSpace (CN) in LEO that was launched on Thu, 05 Sep 2024 UTC via a CHANG ZHENG 6 launch vehicle from the Taiyaun Space Center, China (TSC). Payload-class satellites include a variety of spacecraft equipped with specific instruments for various scientific and technological missions. These include communications satellites like Starlink; space stations such as the ISS; scientific satellites like the Hubble; Earth observation satellites from companies like Planet Labs, Umbra, and HawkEye 360; GPS; miniature CubeSats for education and research; and military/defense satellites.

Loading next visibility...
Identifier
61011, 2024-159A
Orbit
LEO
Country
Flag of CNCN / PRC
Related business
Manufacturer
GWCG
Mission
Operational Commercial Navigation
Bus & Motor
GPS100, Unknown motor
Mass
130 kg wet, 130 kg dry
Launch date (UTC)
2024-09-05 (2 years ago)
Launch vehicle
CHANG ZHENG 6
Launch site
Taiyaun Space Center, China (TSC)
Object type
Payload
Rocket body
Debris
Shape & HBR
Box + 2 Pan, 1.0 m
Radar Cross Section
0.833 m², Large (>1 m²)

Expand to show TLE details & history
Last TLE update: 10 hours ago

TLE from 10 hours ago
0 GEESAT 3-01
1 61011U 24159A   26171.43947058  .00001635  00000-0  22001-3 0  9990
2 61011  50.0013  68.0019 0002538 259.9248 100.1404 14.84239619 97161
Epoch: 2026-06-20T10:32Z
TLE epoch observation values (Epoch: 2026-06-20T10:32:50.258Z)
Latitude
-0.00002°
Longitude
1.1384°
Altitude
616.831 km
Speed
7.552 km/s
True Right ascension
04h 32m 00s
True Declination
0° 00' 00"
Sunlit
Object was in daylight at epoch
Visualization orbit readout
Latitude
Unknown
Longitude
Unknown
Altitude
Unknown
Speed
Unknown
Apparent Right ascension
Unknown
Apparent Declination
Unknown
Sunlit
N/A
Visualization observer readout
Local Sidereal Time
07:17:43
Azimuth
Unknown
Elevation
Unknown
Doppler factor
Unknown
Orbital elements
Apogee altitude
618.507 km
Perigee altitude
614.957 km
Semi-major axis
6,994.869 km
Eccentricity
0.00025
Inclination
50.0013°
RAAN
68.0019°
Arg. of periapsis
259.9248°
True anomaly
100.16903°
Mean anomaly
100.1404°
Eccentric anomaly
100.15471°
Mean motion
3.71 °/min
Orbital period
97.04 mins
BSTAR
0.00022001
Loading maneuver chart data...
Computing Atmospheric mass density...
Loading historical data...
Loading historical data...
Loading historical data...
Loading historical data...
Loading historical data...
Loading historical data...
Loading historical data...

Documentation

Showing up to 5 results
|